Houston Hull, TX

8:29 AM CDT on May 30, 2017 (GMT -0500)
Sugar Land Municipal-Hull

Weather History for KSGR - May, 2013

Change the Weather History Date:

Thursday, May 16, 2013

  Actual Average Record
Temperature  
Mean Temperature 76 °F -  
Max Temperature 84 °F 84 °F 93 °F (1963)
Min Temperature 71 °F 66 °F 52 °F (2006)
Cooling Degree Days 12    
Growing Degree Days 26 (Base 50)    
Moisture  
Dew Point 70 °F    
Average Humidity 81    
Maximum Humidity 90    
Minimum Humidity 65    
Precipitation  
Precipitation 0.00 in - - ()
Sea Level Pressure  
Sea Level Pressure 29.88 in    
Wind  
Wind Speed 12 mph (SSE)    
Max Wind Speed 22 mph    
Max Gust Speed 28 mph    
Visibility 10 miles    
Events      
Averages and records for this station are not official NWS values.
T = Trace of Precipitation, MM = Missing Value Source: NWS Daily Summary

Daily Weather History Graph

Daily Weather History Graph

Search for Another Location

Airport or City:

Trip Planner

Search our weather history database for the weather conditions in past years. The results will help you decide how hot, cold, wet, or windy it might be!

Date:

Astronomy

May. 16, 2013 Rise Set
Actual Time 6:29 AM CDT 8:09 PM CDT
Civil Twilight 6:03 AM CDT 8:35 PM CDT
Nautical Twilight 5:31 AM CDT 9:06 PM CDT
Astronomical Twilight 4:58 AM CDT 9:39 PM CDT
Moon 11:55 AM CDT (5/16) 12:37 AM CDT (5/16)
Length of Visible Light 14h 32m
Length of Day
13h 40m
Waxing Crescent, 36% of the Moon is Illuminated
May 16
Waxing Crescent
May 17
First Quarter
May 24
Full
May 31
Last Quarter
Jun 8
New

Hourly Weather History & Observations

Time (CDT) Temp. Heat Index Dew Point Humidity Pressure Visibility Wind Dir Wind Speed Gust Speed Precip Events Conditions
12:53 AM 72.0 °F - 68.0 °F 87% 29.93 in 10.0 mi South 12.7 mph 20.7 mph N/A   Mostly Cloudy
1:07 AM 71.6 °F - 68.0 °F 88% 29.92 in 10.0 mi South 11.5 mph - N/A   Partly Cloudy
1:53 AM 71.1 °F - 66.9 °F 87% 29.91 in 10.0 mi SSE 10.4 mph - N/A   Partly Cloudy
2:17 AM 71.6 °F - 68.0 °F 88% 29.90 in 10.0 mi SSE 9.2 mph - N/A   Mostly Cloudy
2:53 AM 71.1 °F - 68.0 °F 90% 29.90 in 10.0 mi SE 8.1 mph - N/A   Mostly Cloudy
3:53 AM 71.1 °F - 68.0 °F 90% 29.89 in 10.0 mi SSE 9.2 mph - N/A   Mostly Cloudy
4:53 AM 72.0 °F - 68.0 °F 87% 29.95 in 10.0 mi NNE 5.8 mph - N/A   Overcast
5:29 AM 71.6 °F - 68.0 °F 88% 29.95 in 10.0 mi NE 8.1 mph - N/A   Overcast
5:53 AM 72.0 °F - 68.0 °F 87% 29.95 in 10.0 mi ENE 3.5 mph - N/A   Overcast
6:53 AM 72.0 °F - 68.0 °F 87% 29.94 in 10.0 mi ESE 6.9 mph - N/A   Overcast
7:53 AM 73.0 °F - 69.1 °F 87% 29.94 in 10.0 mi ESE 8.1 mph - N/A   Overcast
8:53 AM 75.0 °F - 69.1 °F 82% 29.91 in 10.0 mi SE 13.8 mph - N/A   Clear
9:33 AM 77.0 °F - 69.8 °F 78% 29.90 in 10.0 mi SSE 15.0 mph - N/A   Mostly Cloudy
9:53 AM 77.0 °F - 69.1 °F 76% 29.91 in 10.0 mi SSE 15.0 mph 21.9 mph N/A   Overcast
10:27 AM 78.8 °F - 69.8 °F 74% 29.90 in 10.0 mi South 15.0 mph - N/A   Mostly Cloudy
10:53 AM 80.1 °F 82.9 °F 69.1 °F 69% 29.90 in 10.0 mi South 18.4 mph 24.2 mph N/A   Mostly Cloudy
11:53 AM 82.0 °F 85.5 °F 69.1 °F 65% 29.88 in 10.0 mi South 21.9 mph 26.5 mph N/A   Mostly Cloudy
12:53 PM 82.0 °F 85.9 °F 70.0 °F 67% 29.86 in 10.0 mi South 19.6 mph 26.5 mph N/A   Mostly Cloudy
2:53 PM 82.9 °F 87.0 °F 70.0 °F 65% 29.85 in 10.0 mi South 16.1 mph - N/A   Mostly Cloudy
3:53 PM 82.0 °F 86.3 °F 71.1 °F 69% 29.84 in 10.0 mi South 17.3 mph 27.6 mph N/A   Overcast
5:53 PM 79.0 °F - 71.1 °F 77% 29.82 in 10.0 mi SSE 13.8 mph - N/A   Overcast
6:21 PM 78.8 °F - 71.6 °F 78% 29.82 in 10.0 mi South 11.5 mph - N/A   Overcast
6:40 PM 78.8 °F - 71.6 °F 78% 29.82 in 10.0 mi South 10.4 mph - N/A   Overcast
6:53 PM 78.1 °F - 71.1 °F 79% 29.83 in 10.0 mi South 11.5 mph - N/A   Overcast
7:32 PM 77.0 °F - 71.6 °F 83% 29.83 in 9.0 mi South 11.5 mph 20.7 mph N/A   Overcast
7:53 PM 77.0 °F - 71.1 °F 82% 29.83 in 9.0 mi SSE 9.2 mph - N/A   Overcast
8:53 PM 77.0 °F - 71.1 °F 82% 29.85 in 10.0 mi SSE 10.4 mph - N/A   Overcast
9:53 PM 75.9 °F - 71.1 °F 85% 29.86 in 10.0 mi SSE 12.7 mph - N/A   Overcast
10:10 PM 75.2 °F - 71.6 °F 89% 29.85 in 10.0 mi SSE 13.8 mph - N/A   Overcast
10:53 PM 75.9 °F - 71.1 °F 85% 29.87 in 9.0 mi SSE 12.7 mph - N/A   Overcast
11:53 PM 75.0 °F - 71.1 °F 87% 29.86 in 8.0 mi SSE 9.2 mph - N/A   Overcast